Regional Weather Roundup
Issued by NWS State College, PA

Home | Current Version | Previous Version | Graphics & Text | Print | Product List | Glossary On
Versions: 1 2 3 4 5 6 7 8 9 10 11 12 13 14 15 16 17 18 19 20 21 22 23 24 25 26 27 28 29 30 31 32 33 34 35 36 37 38 39 40 41 42 43 44 45 46 47 48 49 50
000
ASUS41 KCTP 230210
RWRCTP

REGIONAL WEATHER ROUNDUP
NATIONAL WEATHER SERVICE STATE COLLEGE PA
1000 PM EDT MON SEP 22 2014

Note: "fair" indicates few or no clouds below 12,000 feet with no
significant weather and/or obstructions to visibility.

* = STATION THAT DOES NOT REPORT PRECIPITATION /E.G. RAIN...SNOW...ETC/
    THUNDER OR FOG.

PAZ002>004-007>009-013>016-020>023-029>032-230300-
WESTERN PENNSYLVANIA

CITY           SKY/WX    TMP DP  RH WIND       PRES   REMARKS
ERIE           PTCLDY    49  42  77 S6        30.24R
MEADVILLE      CLEAR     44  40  85 SW5       30.25R
FRANKLIN*      CLEAR     45  37  76 SW5       30.26S
NEW CASTLE       N/A     44  43  97 CALM      30.28R
BEAVER COUNTY  NOT AVBL
BUTLER*        CLEAR     48  39  71 N3        30.28R
PITTSBURGH INT PTCLDY    50  40  68 N8        30.26R
PITTSBURGH     MOCLDY    51  40  65 NW5       30.25R
INDIANA*       CLOUDY    48  45  87 CALM      30.29R
LATROBE        MOCLDY    52  46  82 CALM      30.26R
WASHINGTON CO* CLEAR     43  41  93 CALM      30.27S
$$

PAZ004>006-010>012-017>019-024>028-033>037-041-042-045-046-049>053-230300-
CENTRAL PENNSYLVANIA

CITY           SKY/WX    TMP DP  RH WIND       PRES   REMARKS
BRADFORD       PTCLDY    46  42  86 W6        30.21R
DUBOIS         CLOUDY    46  41  82 W6        30.23R
CLEARFIELD     CLOUDY    50  42  74 W7        30.23R
JOHNSTOWN      CLOUDY    47  40  76 N7        30.23R
ALTOONA        CLOUDY    51  40  65 N12       30.24R
STATE COLLEGE  CLOUDY    52  42  69 NW5       30.23R
WILLIAMSPORT   MOCLDY    53  41  63 NW9       30.20R
SELINSGROVE    CLOUDY    55  41  59 NW6       30.21R
FT INDIANTOWN  CLEAR     56  40  54 W6        30.19R
CAPITAL CITY   CLOUDY    60  42  51 NW8       30.19R
HARRISBURG     CLOUDY    60  41  49 NW10      30.19R
YORK           CLOUDY    56  44  64 NW8       30.20R
$$

PAZ038>040-043-044-047-048-054-055-060>062-067>071-230300-
EASTERN PENNSYLVANIA

CITY           SKY/WX    TMP DP  RH WIND       PRES   REMARKS
SCRANTON       CLOUDY    53  40  61 W5        30.19R
MOUNT POCONO   CLEAR     47  38  71 NW13G22   30.14R
ALLENTOWN      CLEAR     53  40  61 N5        30.17R
QUAKERTOWN*    PTCLDY    54  45  71 CALM      30.18R
READING        CLEAR     55  40  56 NW5       30.18R
LANCASTER      CLEAR     54  42  64 W3        30.20R
COATESVILLE    PTCLDY    55  41  58 NW7       30.19R
POTTSTOWN      PTCLDY    54  42  64 W3        30.19R
BLUE BELL      PTCLDY    57  45  62 W3        30.16R
DOYLESTOWN     PTCLDY    55  42  61 N6        30.16R
WILLOW GROVE   NOT AVBL
NORTH PHILA    PTCLDY    60  41  49 NW8       30.18R
PHILADELPHIA   MOCLDY    61  42  49 NW14      30.17R
$$



USA.gov is the U.S. government's official web portal to all federal, state and local government web resources and services.